Regional Weather Roundup
Issued by NWS

Home | Current Version | Previous Version | Text Only | Print | Product List | Glossary Off
Versions: 1 2 3 4 5 6 7 8 9 10 11 12 13 14 15 16 17 18 19 20 21 22 23 24 25 26 27 28 29 30 31 32 33 34 35 36 37 38 39 40 41 42 43 44 45 46 47 48 49 50

000
ASUS45 KSLC 211410
RWRUT

UTAH REGIONAL WEATHER ROUNDUP
NATIONAL WEATHER SERVICE SALT LAKE CITY UT
800 AM MDT SAT OCT 21 2017

UTZ001>011-023>025-211500-

NORTHERN UTAH

CITY           SKY/WX    TMP DP  RH WIND       PRES   REMARKS
BRIGHAM CITY   PTCLDY    31  24  75 CALM      30.16R
HILL AFB       MOCLDY    37  29  73 S6        30.14R WCI  32
LOGAN          PTCLDY    32  26  78 SE5       30.13R WCI  27
OGDEN          MOCLDY    36  28  73 SE3       30.14R
SALT LAKE CITY PTCLDY    39  29  67 SW5       30.15R
TOOELE VALLEY  PTCLDY    28  23  80 S6        30.17R WCI  22
WENDOVER       PTCLDY    36  21  54 NW7       30.18R WCI  30
WEST JORDAN    PTCLDY    32  24  73 CALM      30.16R

$$

UTZ011>015-024>027-211500-

CENTRAL/NORTHEAST UTAH

CITY           SKY/WX    TMP DP  RH WIND       PRES   REMARKS
PROVO AIRPORT  PTCLDY    31  25  78 E6        30.18R WCI  25
MOAB/CANYONLAN CLEAR     34  16  47 NW7       30.10R WCI  28
DELTA          CLEAR     25  19  80 CALM      30.18R
PRICE          CLEAR     34  20  56 NW8       30.13R WCI  27
ROOSEVELT      CLEAR     32  18  55 W6        30.12S WCI  26
VERNAL         CLEAR     28  16  60 W6        30.10R WCI  22

$$

UTZ013>016-019>022-027-211500-

SOUTHERN UTAH

CITY           SKY/WX    TMP DP  RH WIND       PRES   REMARKS
BRYCE CANYON   PTCLDY    21  13  71 NW8       30.14R WCI  11
CEDAR CITY     PTCLDY    22  15  75 N3        30.14R
MILFORD        PTCLDY    22  13  68 SW6       30.17R WCI  14
ST GEORGE      SUNNY     44  16  32 SE6       30.11R
HANKSVILLE     CLEAR     34  18  51 NW3       30.16R
BLANDING         N/A     35  12  38 NW10      30.14R WCI  27

$$

REGIONAL REPORTS     COLORADO/ARIZONA

CITY           SKY/WX    TMP DP  RH WIND       PRES   REMARKS
CRAIG, CO      CLEAR     21  18  88 SE5       30.09R WCI  15
GRAND JUNCTION CLEAR     30  16  56 CALM      30.09R
RIFLE, CO      CLEAR     33  28  81 SW3       30.09R
MONTROSE, CO   CLEAR     33  16  49 S3        30.11R
CORTEZ, CO     CLEAR     36  14  40 CALM      30.07R
COLORADO CITY    N/A     32  19  59 S3        30.15R
PAGE, AZ       CLEAR     47  16  29 NW5       30.09R
GRAND CANYON   PTCLDY    26  22  84 NE6       30.11R WCI  19
KINGMAN, AZ    CLEAR     48  16  27 E9        30.07R
FLAGSTAFF, AZ  CLEAR     33  30  88 SW3       30.11R

$$

REGIONAL REPORTS    NEVADA/IDAHO/WYOMING

CITY           SKY/WX    TMP DP  RH WIND       PRES   REMARKS
LAS VEGAS, NV  PTCLDY    59  13  16 N14       30.08R
ELY, NY        PTCLDY    16   9  74 S14       30.19R WCI   2
ELKO, NV       CLEAR     20  15  81 CALM      30.19R
POCATELLO, ID  PTCLDY    33  26  75 SW14      30.13R WCI  23
BURLEY, ID     CLEAR     33  25  72 SW9       30.13R WCI  25
FORT BRIDGER,    N/A     26  20  79 SW14      30.11R WCI  14
EVANSTON, WY   CLEAR     24  20  84 SW12      30.09R WCI  13
ROCK SPRINGS,  CLEAR     25  17  72 SW15      30.06R WCI  13

$$



USA.gov is the U.S. government's official web portal to all federal, state and local government web resources and services.